This is the latest recevied weather packets stored in our database for station/object OE3MHU-13. If no packets are shown the sender has not sent any weather packets the latest 10 day(s).
| Time | Temp. | Humidity | Pressure | Rain* | Wind** | Luminosity | Snow |
|---|---|---|---|---|---|---|---|
| 1787948438 | 24.44° C | 71% | 1013.7 hPa | 0 mm | - | - | - |
| 1787948138 | 24.44° C | 71% | 1013.7 hPa | 0 mm | - | - | - |
| 1787947837 | 24.44° C | 71% | 1013.7 hPa | 0 mm | - | - | - |
| 1787947538 | 24.44° C | 71% | 1013.8 hPa | 0 mm | - | - | - |
| 1787947236 | 24.44° C | 70% | 1013.5 hPa | 0 mm | - | - | - |
| 1787946934 | 24.44° C | 71% | 1013.4 hPa | 0 mm | - | - | - |
| 1787946633 | 24.44° C | 70% | 1013.2 hPa | 0 mm | - | - | - |
| 1787946327 | 25° C | 70% | 1013.2 hPa | 0 mm | - | - | - |
| 1787946021 | 25° C | 70% | 1013.5 hPa | 0 mm | - | - | - |
| 1787945715 | 25° C | 70% | 1013.7 hPa | 0 mm | - | - | - |
| 1787945409 | 25° C | 69% | 1013.8 hPa | 0 mm | - | - | - |
| 1787945104 | 25.56° C | 69% | 1014 hPa | 0 mm | - | - | - |
| 1787944797 | 25.56° C | 68% | 1014.1 hPa | 0 mm | - | - | - |
| 1787944494 | 25.56° C | 68% | 1014.1 hPa | 0 mm | - | - | - |
| 1787944185 | 25.56° C | 68% | 1014 hPa | 0 mm | - | - | - |
| 1787943879 | 26.11° C | 68% | 1014.2 hPa | 0 mm | - | - | - |
| 1787943859 | 26.11° C | 67% | 1014.2 hPa | 0 mm | - | - | - |
| 1787943553 | 26.11° C | 67% | 1013.8 hPa | 0 mm | - | - | - |
| 1787942962 | 26.67° C | 66% | 1013.7 hPa | 0 mm | - | - | - |
| 1787942659 | 27.22° C | 65% | 1013.9 hPa | 0 mm | - | - | - |
| 1787942360 | 27.78° C | 64% | 1013.9 hPa | 0 mm | - | - | - |
| 1787942058 | 28.33° C | 62% | 1013.9 hPa | 0 mm | - | - | - |
| 1787941758 | 28.89° C | 57% | 1014 hPa | 0 mm | - | - | - |
| 1787941458 | 28.89° C | 46% | 1013.6 hPa | 0 mm | - | - | - |
| 1787941280 | 28.89° C | 46% | 1013.3 hPa | 0 mm | - | - | - |
* Rain latest hour (hover to see other rain measurements)
** Current wind speed in m/s (hover to see current wind gust speed)